[[{"header":{"parameterUnit":"m.s-1","parameterCategory":1,"la1":30.2991,"la2":30.254,"lo1":-89.0895,"lo2":-89.0444,"dy":0.0017,"dx":0.0017,"nx":28,"ny":28,"refTime":"2024-07-30T03:00:00:Z","depth":0,"parameterNumber":2,"parameterNumberName":"U-component_of_WINDS"},"data":[0,0,0,0,0,0,0,0,0,0,0,0,0,0,0,0,0,0,0,0,0,0,0,0,0,0,0,0,0,0,0,0,0,0,0,0,0,0,0,0,0,0,0,0,0,0,0,0,0,0,0,0,0,0,0,0,0,0,1.467,1.4669,0,1.4626,1.4625,1.4625,1.4532,1.453,1.4528,1.4527,1.4489,1.449,1.4491,0,0,0,0,0,0,0,0,0,0,0,0,0,1.468,1.468,1.467,1.4669,1.4669,1.4626,1.4625,1.4625,1.4532,1.453,1.4528,1.4526,1.4489,1.449,1.4491,0,0,0,0,0,0,0,0,0,0,0,0,0,1.466,1.468,1.467,1.4617,1.4612,1.4626,1.4625,1.4624,1.4533,1.453,1.4527,1.4525,1.4489,1.449,1.4491,1.4555,0,0,1.4495,1.4495,0,0,0,0,0,0,0,0,1.4661,1.466,1.4625,1.4621,1.4615,1.4581,1.4615,1.4601,1.4534,1.4563,1.4526,1.4523,1.4523,1.4521,1.4519,1.4553,1.4552,1.4495,1.4495,1.4496,1.4496,0,0,0,0,0,0,0,1.4663,1.4661,1.4652,1.4625,1.4619,1.4598,1.4592,1.4612,1.456,1.456,1.4554,1.4549,1.4519,1.4518,1.4518,1.4551,1.4495,1.4496,1.4496,1.4497,1.4634,1.4636,0,0,0,0,0,0,1.4671,1.4663,1.4654,1.4651,1.4631,1.46,1.4593,1.4595,1.4559,1.4551,1.4552,1.4545,1.4518,1.4516,1.4516,1.4586,1.4496,1.4497,1.4498,1.4631,1.4634,1.4637,0,0,0,0,0,0,1.4671,1.4671,1.4656,1.4655,1.4651,1.4603,1.4606,1.4596,1.4594,1.4552,1.4543,1.456,1.4515,1.4514,1.4545,1.4584,1.4497,1.4499,1.4627,1.4632,1.4636,1.473,0,0,0,0,0,0,1.4672,1.4672,1.4694,1.4656,1.4652,1.4684,1.4608,1.4597,1.4596,1.4587,1.4557,1.455,1.4513,1.4544,1.4546,1.4584,1.4499,1.4623,1.4629,1.4634,1.4723,1.4737,1.4748,0,0,0,0,0,1.4673,1.4724,1.4695,1.4695,1.4678,1.4686,1.4684,1.4638,1.4599,1.4622,1.4595,1.4551,1.458,1.4548,1.455,1.4589,1.4621,1.4628,1.4634,1.4717,1.4734,1.4748,0,0,0,0,0,0,1.4771,1.4718,1.4686,1.4726,1.4711,1.467,1.4697,1.4658,1.4655,1.4647,1.4593,1.4587,1.4625,1.461,1.4575,1.4648,1.4593,1.4601,1.4656,1.4671,1.4684,1.4686,1.45,0,0,0,0,0,1.4797,1.4805,1.476,1.48,1.4793,1.4747,1.4749,1.4714,1.4698,1.4692,1.4667,1.4654,1.466,1.4665,1.4668,1.4721,1.4713,1.4748,1.4761,1.4772,1.4779,1.4804,1.4819,1.4659,1.4659,1.4659,0,0,1.4851,1.4823,1.4832,1.4819,1.4803,1.4814,1.4742,1.4758,1.4766,1.4695,1.472,1.4702,1.4685,1.4726,1.4743,1.4715,1.4821,1.478,1.4789,1.479,1.4812,1.4827,1.4841,1.4664,1.4663,1.4662,0,0,1.4955,1.4935,1.4965,1.495,1.4926,1.4894,1.4902,1.4867,1.4851,1.4876,1.4822,1.4832,1.4844,1.4833,1.4829,1.4928,1.4887,1.4931,1.4998,1.5023,1.5035,1.5046,1.508,1.5093,1.4938,1.4938,1.4938,0,1.5026,1.5039,1.4987,1.5004,1.5,1.4933,1.4963,1.4952,1.4932,1.4931,1.4899,1.4911,1.4895,1.4931,1.4955,1.4955,1.4962,1.4933,1.5037,1.5048,1.5057,1.5089,1.5102,1.4943,1.4943,1.4942,1.4942,0,1.5127,1.5137,1.5164,1.5142,1.5141,1.5166,1.5119,1.5125,1.5091,1.5063,1.5089,1.5067,1.5064,1.507,1.5039,1.5103,1.5086,1.5047,1.4991,1.5079,1.5107,1.5119,1.4951,1.4949,1.4948,1.4946,0,0,1.5291,1.5238,1.5249,1.5238,1.5206,1.5214,1.5236,1.5229,1.5235,1.5224,1.5241,1.5251,1.5214,1.521,1.5177,1.5199,1.5277,1.5157,1.5156,1.5179,1.5345,1.5373,1.5388,1.525,1.5252,1.5254,1.5346,0,1.5387,1.5418,1.5371,1.5414,1.5422,1.5359,1.5378,1.5362,1.5337,1.5342,1.5315,1.5323,1.5274,1.5271,1.529,1.5263,1.5309,1.5256,1.5266,1.5267,1.5271,1.5403,1.5433,1.5521,1.5357,1.5359,1.536,0,1.5502,1.5493,1.5535,1.5499,1.5501,1.5519,1.5508,1.5514,1.5494,1.5475,1.5469,1.5428,1.5449,1.5395,1.5423,1.5388,1.5389,1.5377,1.5379,1.5378,1.5318,1.5404,1.5548,1.556,1.5378,1.5376,1.5375,0,1.5616,1.5614,1.5639,1.5631,1.559,1.5604,1.5588,1.5565,1.5564,1.5556,1.5555,1.5552,1.5549,1.5548,1.5508,1.5473,1.5541,1.5484,1.5525,1.5526,1.5541,1.5541,1.5686,1.5545,1.5545,1.5545,1.5545,0,1.5726,1.5755,1.5688,1.5704,1.5734,1.5681,1.5713,1.5691,1.5671,1.5682,1.5629,1.5641,1.5587,1.5594,1.5563,1.559,1.5591,1.5576,1.5567,1.5579,1.5581,1.5579,1.5571,1.5548,1.5548,1.5547,1.5546,0,1.5858,1.5814,1.5837,1.5795,1.5785,1.5809,1.5775,1.5788,1.5759,1.5773,1.5774,1.573,1.5735,1.5695,1.5693,1.5673,1.5714,1.5696,1.5719,1.5713,1.5756,1.5752,1.5904,1.5921,1.5771,1.5772,1.5774,0,1.593,1.595,1.591,1.5911,1.5897,1.5902,1.5899,1.5849,1.5849,1.5827,1.5844,1.5843,1.584,1.5852,1.5821,1.5819,1.5799,1.5853,1.5799,1.581,1.5798,1.5797,1.5798,1.5864,1.5866,1.5867,1.5869,0,1.6063,1.604,1.6037,1.6027,1.6025,1.6016,1.6003,1.6008,1.5953,1.5957,1.5959,1.5957,1.5953,1.5954,1.5946,1.5932,1.5891,1.5886,1.5895,1.5907,1.5919,1.5912,1.5748,1.5882,1.5881,1.588,1.5879,1.5879,1.6166,1.618,1.6153,1.6151,1.6136,1.6125,1.6134,1.6105,1.6106,1.6097,1.6068,1.6076,1.6056,1.604,1.603,1.6036,1.601,1.6024,1.6027,1.6031,1.6038,1.5919,1.6035,1.6034,1.6034,1.6033,1.6033,0,1.6294,1.6273,1.6273,1.6254,1.6254,1.6213,1.6197,1.6199,1.6206,1.6189,1.6186,1.6189,1.619,1.6158,1.6155,1.6166,1.6147,1.6167,1.6165,1.6162,1.6062,1.6053,1.6182,1.6182,1.6182,1.6181,1.6181,1.6181,1.6361,1.6381,1.6356,1.6368,1.6348,1.6352,1.6346,1.6336,1.6322,1.6327,1.6325,1.6304,1.6282,1.6276,1.6274,1.6265,1.6266,1.6292,1.6276,1.6183,1.6169,1.6155,1.6147,1.6293,1.6293,1.6375,1.6376,1.6377]},{"header":{"parameterUnit":"m.s-1","parameterCategory":1,"la1":30.2991,"la2":30.254,"lo1":-89.0895,"lo2":-89.0444,"dy":0.0017,"dx":0.0017,"nx":28,"ny":28,"refTime":"2024-07-30T03:00:00:Z","depth":0,"parameterNumber":3,"parameterNumberName":"V-component_of_WINDS"},"data":[0,0,0,0,0,0,0,0,0,0,0,0,0,0,0,0,0,0,0,0,0,0,0,0,0,0,0,0,0,0,0,0,0,0,0,0,0,0,0,0,0,0,0,0,0,0,0,0,0,0,0,0,0,0,0,0,0,0,3.464,3.464,0,3.4653,3.4653,3.4653,3.4621,3.462,3.4619,3.4618,3.4629,3.463,3.4632,0,0,0,0,0,0,0,0,0,0,0,0,0,3.4583,3.4584,3.464,3.464,3.464,3.4653,3.4653,3.4653,3.4621,3.462,3.4618,3.4617,3.4629,3.463,3.4632,0,0,0,0,0,0,0,0,0,0,0,0,0,3.4603,3.4585,3.4639,3.4625,3.4624,3.4653,3.4653,3.4653,3.4621,3.462,3.4618,3.4617,3.4628,3.463,3.4632,3.4674,0,0,3.4638,3.4638,0,0,0,0,0,0,0,0,3.4602,3.4605,3.4627,3.4626,3.4625,3.4634,3.4637,3.466,3.4622,3.4622,3.4618,3.4616,3.4632,3.4633,3.4639,3.4674,3.4675,3.4638,3.4639,3.464,3.464,0,0,0,0,0,0,0,3.4601,3.4604,3.4645,3.4628,3.4626,3.4617,3.4618,3.4641,3.4635,3.4622,3.462,3.4622,3.4631,3.4637,3.4639,3.4675,3.4638,3.4639,3.4641,3.4641,3.4743,3.4744,0,0,0,0,0,0,3.4601,3.4603,3.4644,3.4645,3.461,3.462,3.4621,3.4632,3.4635,3.4634,3.4623,3.462,3.4635,3.4637,3.4639,3.4686,3.464,3.4641,3.4643,3.4741,3.4743,3.4745,0,0,0,0,0,0,3.46,3.4605,3.4644,3.4624,3.4628,3.4622,3.4635,3.4633,3.464,3.4636,3.4634,3.4631,3.4634,3.4637,3.4665,3.4686,3.4642,3.4644,3.4739,3.4742,3.4744,3.4782,0,0,0,0,0,0,3.4599,3.4605,3.4622,3.4624,3.4629,3.467,3.4637,3.4635,3.4643,3.464,3.4643,3.4642,3.4633,3.4662,3.4667,3.4688,3.4645,3.4737,3.474,3.4743,3.4779,3.4786,3.4791,0,0,0,0,0,3.4597,3.4633,3.4623,3.4628,3.465,3.4672,3.4674,3.4664,3.4645,3.4661,3.4658,3.4642,3.4684,3.4666,3.467,3.4692,3.4736,3.4739,3.4743,3.4776,3.4784,3.4791,0,0,0,0,0,0,3.4633,3.4633,3.4622,3.466,3.4666,3.4666,3.4686,3.4673,3.4684,3.468,3.4666,3.4667,3.4697,3.4698,3.4678,3.4732,3.4706,3.4711,3.473,3.4738,3.4744,3.4742,3.4647,0,0,0,0,0,3.4645,3.4664,3.4662,3.4695,3.4699,3.4692,3.4701,3.4693,3.4698,3.47,3.47,3.4705,3.4719,3.4729,3.4742,3.4779,3.4778,3.4797,3.4803,3.4808,3.4812,3.4829,3.4837,3.4756,3.4756,3.4756,0,0,3.4671,3.4673,3.4685,3.4703,3.4706,3.4724,3.4695,3.4716,3.4728,3.4703,3.473,3.4729,3.4734,3.4767,3.4781,3.4768,3.4834,3.4813,3.4817,3.4817,3.4834,3.4841,3.4848,3.4759,3.4758,3.4758,0,0,3.4726,3.4731,3.4757,3.4762,3.4768,3.4763,3.4769,3.4771,3.477,3.4796,3.4777,3.4792,3.4817,3.482,3.4826,3.488,3.4865,3.4885,3.4916,3.4934,3.494,3.4946,3.4963,3.497,3.4889,3.4889,3.4889,0,3.4757,3.4784,3.4773,3.4794,3.4801,3.478,3.4806,3.481,3.482,3.4825,3.4811,3.484,3.4843,3.4874,3.4887,3.4893,3.4899,3.4884,3.494,3.4946,3.4951,3.4967,3.4974,3.4891,3.4891,3.4891,3.4891,0,3.482,3.4839,3.486,3.487,3.4879,3.4903,3.4894,3.4905,3.4895,3.4891,3.4917,3.4918,3.493,3.4937,3.4928,3.4967,3.4959,3.4943,3.4917,3.4961,3.4976,3.4982,3.4895,3.4894,3.4893,3.4893,0,0,3.4898,3.4901,3.4908,3.4911,3.4916,3.4929,3.4951,3.4963,3.4972,3.4979,3.4996,3.5017,3.5001,3.5007,3.4998,3.5014,3.5054,3.4995,3.4995,3.5004,3.5095,3.5105,3.5113,3.5044,3.5045,3.5046,3.5094,0,3.4951,3.4989,3.4979,3.5016,3.5032,3.5011,3.503,3.5034,3.503,3.5043,3.5039,3.5053,3.5033,3.5036,3.505,3.5046,3.5072,3.5043,3.5058,3.5058,3.5055,3.5121,3.5133,3.5178,3.51,3.5101,3.5101,0,3.5017,3.5027,3.5065,3.5065,3.5071,3.5089,3.5097,3.511,3.5113,3.511,3.5116,3.5103,3.5123,3.5098,3.5124,3.5104,3.511,3.5109,3.511,3.511,3.5081,3.5121,3.5192,3.5198,3.5111,3.511,3.511,0,3.5067,3.509,3.5115,3.5119,3.512,3.5132,3.5133,3.5135,3.5142,3.5149,3.5153,3.5163,3.5168,3.5176,3.5166,3.5149,3.5192,3.5167,3.5188,3.5189,3.5197,3.5197,3.5268,3.5204,3.5204,3.5204,3.5204,0,3.5126,3.515,3.5137,3.5153,3.5178,3.5166,3.5191,3.519,3.5191,3.5205,3.5188,3.5201,3.5188,3.5199,3.5192,3.5213,3.5216,3.5213,3.521,3.5213,3.5213,3.5215,3.5211,3.5206,3.5205,3.5205,3.5205,0,3.5186,3.5179,3.5204,3.5203,3.5203,3.5222,3.522,3.5233,3.5228,3.5246,3.5249,3.5242,3.5254,3.5245,3.5258,3.5252,3.528,3.5274,3.5279,3.5276,3.5298,3.5295,3.5372,3.538,3.5313,3.5313,3.5314,0,3.5223,3.524,3.524,3.5248,3.525,3.5264,3.527,3.5259,3.5266,3.5271,3.5283,3.5294,3.5302,3.5323,3.5318,3.5327,3.532,3.5346,3.5321,3.5323,3.5318,3.5316,3.5317,3.5351,3.5352,3.5352,3.5353,0,3.5288,3.5283,3.5294,3.5303,3.5311,3.5318,3.5323,3.5331,3.5318,3.5328,3.534,3.5347,3.5359,3.537,3.5377,3.5377,3.5362,3.5361,3.5366,3.5369,3.537,3.5367,3.529,3.5359,3.5358,3.5358,3.5358,3.5357,3.5335,3.5349,3.5351,3.5363,3.5366,3.537,3.5382,3.5379,3.5389,3.5398,3.5391,3.5405,3.5407,3.5415,3.5416,3.5427,3.5416,3.5424,3.5425,3.5427,3.5429,3.537,3.5428,3.5428,3.5428,3.5428,3.5428,0,3.5398,3.5398,3.5409,3.5416,3.5425,3.5412,3.5416,3.5424,3.5437,3.544,3.5448,3.5462,3.5472,3.5468,3.5476,3.5485,3.5479,3.5487,3.5486,3.5485,3.5439,3.5433,3.5492,3.5492,3.5492,3.5492,3.5492,3.5492,3.5431,3.5453,3.5448,3.5471,3.547,3.5484,3.5488,3.5492,3.5494,3.5509,3.5518,3.5515,3.5514,3.5522,3.5531,3.5529,3.5532,3.5543,3.5539,3.5495,3.5489,3.5483,3.5477,3.5544,3.5544,3.5584,3.5584,3.5584]}]]